Regional Weather Roundup
Issued by NWS

Home | Current Version | Previous Version | Graphics & Text | Print | Product List | Glossary Off
Versions: 1 2 3 4 5 6 7 8 9 10 11 12 13 14 15 16 17 18 19 20 21 22 23 24 25 26 27 28 29 30 31 32 33 34 35 36 37 38 39 40 41 42 43 44 45 46 47 48 49 50

000
ASUS44 KFWD 301315
RWRTX
NORTH TEXAS HOURLY WEATHER ROUNDUP
NATIONAL WEATHER SERVICE FORT WORTH TX
800 AM CDT MON MAY 30 2016

NOTE: "FAIR" INDICATES FEW OR NO CLOUDS BELOW 12,000 FEET WITH NO
SIGNIFICANT WEATHER AND/OR OBSTRUCTIONS TO VISIBILITY.

TXZ118-119-301400-
DALLAS/FORT WORTH METROPLEX

CITY           SKY/WX    TMP DP  RH WIND       PRES   REMARKS
DFW AIRPORT    CLOUDY    70  65  84 N9        30.02R
DALLAS LOVE    CLOUDY    69  65  86 N6        30.02R
FTW MEACHAM    PTSUNNY   69  64  84 N12       30.02R
DAL-EXECUTIVE  CLOUDY    69  62  78 NW12      30.02R
FTW-ALLIANCE   CLOUDY    68  66  93 N8        30.03R
FTW-NAS-JRB    CLOUDY    70  63  78 N8        30.03R
FTW-SPINKS     SUNNY     68  61  77 N9        30.04R
ARLINGTON      CLOUDY    72  62  71 N12       30.02R
GRAND PRAIRIE  SUNNY     70  63  78 N10       30.04R
ADDISON        PTSUNNY   68  68 100 N12       30.03R
MESQUITE       MOSUNNY   68  64  88 NW5       30.03R
LANCASTER      CLOUDY    72  57  57 NW8       30.02R
$$

TXZ091>094-102>105-117-120-121-131>134-301400-
NORTH CENTRAL TEXAS

CITY           SKY/WX    TMP DP  RH WIND       PRES   REMARKS
SHRMAN/DENISON DRIZZLE   64  61  90 E7        30.04F
GAINESVILLE    CLOUDY    66  65  96 CALM      30.07R
BOWIE          CLOUDY    65  64  97 CALM      30.04F
BRIDGEPORT     CLOUDY    67  67 100 CALM      30.06S
DECATUR        PTSUNNY   66  65  97 NE5       30.05S
DENTON         PTSUNNY   68  67  96 NE7       30.04R
MCKINNEY       CLOUDY    67  65  93 NE5       30.04R
GREENVILLE     LGT RAIN  68  64  88 NE5       30.04R
ROCKWALL       CLOUDY    67  66  95 NE8       30.03R
TERRELL        CLOUDY    70  64  81 VRB3      30.04R
WAXAHACHIE     CLOUDY    71  61  70 N8        30.03R
CLEBURNE       CLOUDY    68  64  88 N13G18    30.03R
GRANBURY       CLOUDY    67  63  86 N5        30.02R
$$

TXZ083>090-098>101-113>116-127>130-139>142-154-155-301400-
WESTERN NORTH TEXAS

CITY           SKY/WX    TMP DP  RH WIND       PRES   REMARKS
WICHITA FALLS  CLOUDY    66  64  93 MISG      30.04R
WF-KICKAPOO      N/A    N/A N/A N/A SE3       30.06R
VERNON         SUNNY     65  60  84 NE3       30.08R
ABILENE        MOSUNNY   64  62  93 S8        30.04R
ABILENE-DYESS  SUNNY     65  63  92 S7        30.04R
GRAHAM         CLOUDY    66  66 100 CALM      30.04R
MINERAL WELLS  CLOUDY    67  64  90 N5        30.02R
STEPHENVILLE   CLOUDY    66  61  85 NW3       30.03R
COMANCHE       CLOUDY    64  64 100 SW10      30.02R
BROWNWOOD      CLOUDY    64  63  94 S8        30.05R
COLEMAN        PTSUNNY   64  62  91 S10G17    30.05R
$$

TXZ143>147-156>162-174-175-301400-
CENTRAL TEXAS

CITY           SKY/WX    TMP DP  RH WIND       PRES   REMARKS
WACO           CLOUDY    76  56  49 S21G28    29.88R
WACO-TSTC      SUNNY     72  61  68 CALM      29.90R
WACO-MCGREGOR  CLOUDY    74  59  59 S20G32    29.88R
HILLSBORO      CLOUDY    66  63  90 NE5       29.96R
CORSICANA      CLOUDY    71  67  87 E7        30.00R
MEXIA          CLOUDY    71  69  92 SE10      29.92F
HEARNE         CLOUDY    72  71  99 CALM      30.02F FOG
CAMERON        CLOUDY    73  71  96 S7        29.99F
TEMPLE         LGT RAIN  68  67  96 S20       29.97R
KILLEEN        LGT RAIN  65  65  97 S17G25    29.99R FOG
KILLEEN-SKYLRK LGT RAIN  68  66  93 S18       29.99S
FORT HOOD      LGT RAIN  66  65  97 S17       29.96F FOG
GATESVILLE     CLOUDY    70  63  78 S13G24    29.96R
HAMILTON       CLOUDY    66  63  90 SW12      30.01R
LAMPASAS       LGT RAIN  65  64  93 S16G26    29.98S
$$

TXZ095>097-106>112-122>126-135>138-148>153-164>167-301400-
EAST TEXAS

CITY           SKY/WX    TMP DP  RH WIND       PRES   REMARKS
PARIS          CLOUDY    66  57  72 N8        30.04F
SULPHUR SPRNGS CLOUDY    67  67  99 CALM      30.04S
MOUNT PLEASANT CLOUDY    72  64  78 W3        30.06F
GILMER         CLOUDY    71  65  81 CALM      30.05S
MINEOLA        DRIZZLE   66  66 100 SE8       29.99F
TYLER          LGT RAIN  69  65  86 E3        30.03F
LONGVIEW       CLOUDY    73  70  90 CALM      30.04R
MARSHALL       CLOUDY    73  68  85 CALM      30.07R
ATHENS         CLOUDY    66  66 100 E7        29.99S
PALESTINE      CLOUDY    72  72 100 SE6       30.03S
JACKSONVILLE   CLOUDY    72  71  97 S5        30.06F
HENDERSON      CLOUDY    72  70  93 CALM      30.06F
CENTER         FAIR      76  73  92 CALM      30.05R
NACOGDOCHES    CLOUDY    70  70 100 CALM      30.05S
LUFKIN         MOSUNNY   72  71  97 CALM      30.05R FOG
$$

SUPPLEMENTAL OBSERVATIONS (CENTRAL)

CITY           SKY/WX    TMP DP  RH WIND       PRES   REMARKS
LAKE TEXOMA      N/A     66  63  88 SE6         N/A
CADDO GRASSLND   N/A     66  63  88 NE3         N/A
PAT MAYSE LAKE   N/A     64  63  94 N3          N/A
GREENVILLE       N/A     66  63  88 NE2         N/A
LAKE LIMESTONE   N/A     73  72  94 SE9G18      N/A
MCGREGOR         N/A    N/A N/A N/A S22G31      N/A
TEMPLE           N/A     70  66  88 S15         N/A
$$

SUPPLEMENTAL OBSERVATIONS (WEST)

CITY           SKY/WX    TMP DP  RH WIND       PRES   REMARKS
MILLERS CREEK    N/A     64  63  94 N5          N/A
POSSUM KINGDOM   N/A     66  63  88 N5          N/A
COMANCHE         N/A     64  59  82 SW13        N/A
HAMBY            N/A     64  61  88 SW3         N/A
IVIE RESERVOIR   N/A     64  61  88 S10         N/A
COLORADO BEND    N/A     63  57  82 SW16G26     N/A
$$

SUPPLEMENTAL OBSERVATIONS (EAST)

CITY           SKY/WX    TMP DP  RH WIND       PRES   REMARKS
CLARKSVILLE      N/A     66  64  94 NE2         N/A
LINDEN           N/A     72  66  83 SW1         N/A
GILMER           N/A     72  64  78 W3G12       N/A
HENDERSON        N/A     73  68  83 S1          N/A
S SABINE NF      N/A     75  72  88 S1          N/A
$$

SUPPLEMENTAL OBSERVATIONS ARE A COLLECTION OF AUTOMATED INSTRUMENTS
THAT ARE MAINTAINED BY A VARIETY OF FEDERAL AND STATE AGENCIES.
CERTAIN ELEMENTS...SUCH AS HUMIDITY VALUES AND SUSTAINED WIND
SPEEDS...MAY BE APPROXIMATED.





USA.gov is the U.S. government's official web portal to all federal, state and local government web resources and services.